This demonstration page uses our WeatherBlox Daily Observations layout. Learn more.

Left ArrowRight Arrow

39.29038, -76.61219

Hourly Observations for May 14, 2021

Temp ( °F °C ) Dew Point ( °F °C ) Humidity (%) Winds ( mph kmh ) Pressure ( in mb ) Visibility ( mi km ) Precip ( " mm )
12:54 am 00:54 Mostly Clear 48 8.9 39 3.9 71 71 N N/A 30.23 1024 10 16 N/A
1:54 am 01:54 Partly Cloudy 46 7.8 39 3.9 77 77 WSW 3 6 30.22 1023 10 16 N/A
2:54 am 02:54 Mostly Cloudy 48 8.9 39 3.9 71 71 N N/A 30.22 1023 10 16 N/A
3:54 am 03:54 Mostly Cloudy 47 8.3 40 4.4 77 77 W 3 6 30.22 1023 10 16 N/A
4:54 am 04:54 Mostly Cloudy 47 8.3 40 4.4 77 77 N N/A 30.22 1023 10 16 N/A
5:54 am 05:54 Mostly Cloudy 50 10 39 3.9 66 66 N N/A 30.22 1023 10 16 N/A
6:54 am 06:54 Mostly Cloudy 55 12.8 43 6.1 64 64 N N/A 30.24 1024 10 16 N/A
7:54 am 07:54 Mostly Cloudy 60 15.6 42 5.6 52 52 N N/A 30.25 1025 10 16 N/A
8:54 am 08:54 Partly Cloudy 66 18.9 40 4.4 39 39 VRB 5 7 30.26 1025 10 16 N/A
9:54 am 09:54 Mostly Sunny 70 21.1 33 0.6 26 26 NNE 7 11 30.26 1025 10 16 N/A
10:54 am 10:54 Mostly Sunny 72 22.2 33 0.6 24 24 E 6 9 30.26 1025 10 16 N/A
11:54 am 11:54 Mostly Cloudy 70 21.1 31 -0.6 23 23 VRB 3 6 30.25 1024 10 16 N/A
12:54 pm 12:54 Mostly Cloudy 70 21.1 29 -1.7 22 22 NE 3 6 30.24 1024 10 16 N/A
1:54 pm 13:54 Mostly Cloudy 71 21.7 32 undefined 24 24 NW 10 17 30.23 1024 10 16 N/A
2:54 pm 14:54 Mostly Cloudy 71 21.7 34 1.1 26 26 N N/A 30.22 1024 10 16 N/A
3:54 pm 15:54 Mostly Cloudy 74 23.3 31 -0.6 20 20 VRB 3 6 30.20 1023 10 16 N/A
4:54 pm 16:54 Mostly Cloudy 71 21.7 35 1.7 27 27 N N/A 30.19 1022 10 16 N/A
5:54 pm 17:54 Partly Cloudy 73 22.8 31 -0.6 21 21 WSW 3 6 30.19 1022 10 16 N/A
6:54 pm 18:54 Partly Cloudy 69 20.6 34 1.1 27 27 S 5 7 30.18 1022 10 16 N/A
7:54 pm 19:54 Partly Cloudy 66 18.9 36 2.2 33 33 S 5 7 30.19 1022 10 16 N/A
8:54 pm 20:54 Mostly Clear 64 17.8 36 2.2 35 35 S 5 7 30.20 1023 10 16 N/A
9:54 pm 21:54 Clear 60 15.6 38 3.3 44 44 SSW 3 6 30.22 1023 10 16 N/A
10:54 pm 22:54 Clear 55 12.8 40 4.4 57 57 SW 3 6 30.22 1023 10 16 N/A
11:54 pm 23:54 Clear 54 12.2 40 4.4 59 59 N N/A 30.22 1023 10 16 N/A

Powered by AerisWeather